Location: Broekland
(52.3610°N, 6.2005°E)
Time: 06:26:04
(UTC+00:00)

Cosmos 2084 Rocket - Pass Details

Date: 19 May 2025
Orbit: 542 x 579 km, 62.8° (Epoch: 14 June)

Event Time Altitude Azimuth Distance (km) Brightness Sun altitude
Rises 21:54:03 0° 228° (SW) 2,782 6.7 -14.6°
Reaches altitude 10° 21:56:17 10° 229° (SW) 1,883 5.9 -14.7°
Maximum altitude 22:00:32 84° 315° (NW) 582 3.4 -15.0°
Drops below altitude 10° 22:04:47 10° 47° (NE) 1,874 6.3 -15.2°
Sets 22:07:00 0° 48° (NE) 2,767 7.2 -15.3°
